This is the latest recevied weather packets stored in our database for station/object YN9ZMM-13. If no packets are shown the sender has not sent any weather packets the latest 10 day(s).
| Time | Temp. | Humidity | Pressure | Rain* | Wind** | Luminosity | Snow |
|---|---|---|---|---|---|---|---|
| 1777843282 | 33.89° C | 30% | 1009 hPa | 0 mm | - | - | - |
| 1777842682 | 33.33° C | 30% | 1009 hPa | 0 mm | - | - | - |
| 1777842081 | 32.78° C | 30% | 1009 hPa | 0 mm | - | - | - |
| 1777841481 | 32.22° C | 30% | 1009 hPa | 0 mm | - | - | - |
| 1777840881 | 32.22° C | 30% | 1009 hPa | 0 mm | - | - | - |
| 1777840280 | 31.67° C | 30% | 1009 hPa | 0 mm | - | - | - |
| 1777839680 | 31.11° C | 30% | 1010 hPa | 0 mm | - | - | - |
| 1777839080 | 30.56° C | 30% | 1010 hPa | 0 mm | - | - | - |
| 1777838479 | 30° C | 30% | 1010 hPa | 0 mm | - | - | - |
| 1777837879 | 29.44° C | 30% | 1010 hPa | 0 mm | - | - | - |
| 1777837279 | 28.89° C | 31% | 1010 hPa | 0 mm | - | - | - |
| 1777836678 | 28.89° C | 30% | 1010 hPa | 0 mm | - | - | - |
| 1777836078 | 28.33° C | 33% | 1011 hPa | 0 mm | - | - | - |
| 1777835478 | 28.33° C | 32% | 1011 hPa | 0 mm | - | - | - |
| 1777834877 | 28.33° C | 32% | 1011 hPa | 0 mm | - | - | - |
| 1777834277 | 28.33° C | 32% | 1011 hPa | 0 mm | - | - | - |
| 1777833677 | 28.33° C | 33% | 1011 hPa | 0 mm | - | - | - |
| 1777833076 | 27.78° C | 33% | 1011 hPa | 0 mm | - | - | - |
| 1777832476 | 27.78° C | 36% | 1012 hPa | 0 mm | - | - | - |
| 1777831875 | 27.78° C | 36% | 1012 hPa | 0 mm | - | - | - |
| 1777831275 | 27.78° C | 36% | 1012 hPa | 0 mm | - | - | - |
| 1777830674 | 27.78° C | 36% | 1012 hPa | 0 mm | - | - | - |
| 1777830074 | 27.78° C | 38% | 1012 hPa | 0 mm | - | - | - |
| 1777829474 | 27.78° C | 38% | 1012 hPa | 0 mm | - | - | - |
| 1777828873 | 26.67° C | 42% | 1013 hPa | 0 mm | - | - | - |
* Rain latest hour (hover to see other rain measurements)
** Current wind speed in m/s (hover to see current wind gust speed)